Mineral Point, WI

8:11 PM CST on December 17, 2017 (GMT -0600)
Iowa County

Weather History for KMRJ - April, 2013

Change the Weather History Date:

Monday, April 22, 2013

  Actual Average (KLNR) Record (KLNR)
Temperature  
Mean Temperature 55 °F -  
Max Temperature 66 °F 58 °F 84 °F (2007)
Min Temperature 44 °F 36 °F 28 °F (2003)
Degree Days  
Heating Degree Days 10    
Growing Degree Days 5 (Base 50)    
Moisture  
Dew Point 35 °F    
Average Humidity 51    
Maximum Humidity 71    
Minimum Humidity 28    
Precipitation  
Precipitation 0.00 in - - ()
Sea Level Pressure  
Sea Level Pressure 30.11 in    
Wind  
Wind Speed 12 mph (SSE)    
Max Wind Speed 18 mph    
Max Gust Speed 25 mph    
Visibility 10 miles    
Events Rain    
Averages and records for this station are not official NWS values.
T = Trace of Precipitation, MM = Missing Value Source: NWS Daily Summary

Daily Weather History Graph

Daily Weather History Graph

Search for Another Location

Airport or City:

Trip Planner

Search our weather history database for the weather conditions in past years. The results will help you decide how hot, cold, wet, or windy it might be!

Date:

Astronomy

Apr. 22, 2013 Rise Set
Actual Time 6:07 AM CDT 7:51 PM CDT
Civil Twilight 5:37 AM CDT 8:21 PM CDT
Nautical Twilight 5:01 AM CDT 8:58 PM CDT
Astronomical Twilight 4:21 AM CDT 9:38 PM CDT
Moon 4:36 PM CDT (4/22) 4:07 AM CDT (4/22)
Length of Visible Light 14h 44m
Length of Day
13h 43m
Waxing Gibbous, 88% of the Moon is Illuminated
Apr 22
Waxing Gibbous
Apr 25
Full
May 2
Last Quarter
May 9
New
May 17
First Quarter

Hourly Weather History & Observations

Time (CDT) Temp. Windchill Dew Point Humidity Pressure Visibility Wind Dir Wind Speed Gust Speed Precip Events Conditions
12:15 AM 46.4 °F 39.8 °F 33.8 °F 62% 30.22 in 10.0 mi SSE 16.1 mph 23.0 mph N/A   Mostly Cloudy
12:35 AM 46.4 °F 40.4 °F 35.6 °F 66% 30.22 in 10.0 mi SSE 13.8 mph 21.9 mph N/A   Mostly Cloudy
12:55 AM 46.4 °F 41.5 °F 33.8 °F 62% 30.22 in 10.0 mi South 10.4 mph - N/A   Mostly Cloudy
1:15 AM 46.4 °F 40.1 °F 33.8 °F 62% 30.21 in 10.0 mi SSE 15.0 mph - N/A   Mostly Cloudy
1:35 AM 46.4 °F 40.4 °F 33.8 °F 62% 30.21 in 10.0 mi SSE 13.8 mph 19.6 mph N/A Rain Light Rain
1:55 AM 46.4 °F 40.4 °F 33.8 °F 62% 30.21 in 10.0 mi SSE 13.8 mph 18.4 mph N/A   Overcast
2:15 AM 46.4 °F 40.4 °F 33.8 °F 62% 30.20 in 10.0 mi SSE 13.8 mph 18.4 mph N/A   Overcast
2:35 AM 46.4 °F 40.1 °F 33.8 °F 62% 30.20 in 10.0 mi SSE 15.0 mph - N/A   Unknown
2:55 AM 46.4 °F 40.7 °F 33.8 °F 62% 30.20 in 10.0 mi SSE 12.7 mph - N/A   Overcast
3:35 AM 46.4 °F 40.7 °F 33.8 °F 62% 30.19 in 10.0 mi SSE 12.7 mph - N/A   Overcast
3:55 AM 46.4 °F 43.5 °F 33.8 °F 62% 30.20 in 10.0 mi South 5.8 mph - N/A   Overcast
4:15 AM 44.6 °F 40.2 °F 35.6 °F 71% 30.20 in 10.0 mi SSE 8.1 mph - N/A Rain Light Rain
4:35 AM 44.6 °F 40.7 °F 35.6 °F 71% 30.20 in 10.0 mi SSE 6.9 mph - N/A Rain Light Rain
4:55 AM 44.6 °F 42.2 °F 35.6 °F 71% 30.21 in 10.0 mi SSW 4.6 mph - N/A   Overcast
5:15 AM 44.6 °F 42.2 °F 35.6 °F 71% 30.20 in 10.0 mi South 4.6 mph - N/A   Unknown
5:35 AM 44.6 °F 43.1 °F 35.6 °F 71% 30.20 in 10.0 mi SSE 3.5 mph - N/A   Overcast
5:55 AM 44.6 °F 42.2 °F 35.6 °F 71% 30.19 in 10.0 mi SSE 4.6 mph - N/A   Overcast
6:15 AM 44.6 °F 41.4 °F 35.6 °F 71% 30.19 in 10.0 mi SSE 5.8 mph - N/A   Overcast
6:35 AM 44.6 °F 40.7 °F 35.6 °F 71% 30.19 in 10.0 mi SSE 6.9 mph - N/A   Overcast
6:55 AM 44.6 °F 40.7 °F 35.6 °F 71% 30.19 in 10.0 mi SSE 6.9 mph - N/A   Overcast
7:15 AM 44.6 °F 40.2 °F 35.6 °F 71% 30.19 in 10.0 mi SSE 8.1 mph - N/A   Overcast
7:35 AM 44.6 °F 40.2 °F 35.6 °F 71% 30.19 in 10.0 mi SSE 8.1 mph - N/A   Overcast
7:55 AM 46.4 °F 41.9 °F 35.6 °F 66% 30.19 in 10.0 mi SSE 9.2 mph - N/A   Overcast
8:15 AM 46.4 °F 42.4 °F 35.6 °F 66% 30.19 in 10.0 mi SSE 8.1 mph - N/A   Overcast
8:35 AM 46.4 °F 42.4 °F 35.6 °F 66% 30.18 in 10.0 mi SSE 8.1 mph - N/A   Overcast
8:55 AM 48.2 °F - 35.6 °F 62% 30.18 in 10.0 mi SSE 8.1 mph - N/A   Mostly Cloudy
9:15 AM 50.0 °F - 35.6 °F 58% 30.18 in 10.0 mi South 8.1 mph - N/A   Mostly Cloudy
9:35 AM 50.0 °F - 33.8 °F 54% 30.17 in 10.0 mi SSE 10.4 mph - N/A   Mostly Cloudy
9:55 AM 51.8 °F - 35.6 °F 54% 30.17 in 10.0 mi SSE 10.4 mph - N/A   Scattered Clouds
10:15 AM 51.8 °F - 35.6 °F 54% 30.18 in 10.0 mi South 10.4 mph - N/A   Scattered Clouds
10:55 AM 53.6 °F - 33.8 °F 47% 30.17 in 10.0 mi South 9.2 mph - N/A   Overcast
11:15 AM 53.6 °F - 33.8 °F 47% 30.17 in 10.0 mi South 12.7 mph - N/A   Overcast
11:35 AM 55.4 °F - 33.8 °F 44% 30.16 in 10.0 mi South 11.5 mph - N/A   Overcast
11:55 AM 55.4 °F - 33.8 °F 44% 30.16 in 10.0 mi South 11.5 mph - N/A   Overcast
12:15 PM 59.0 °F - 33.8 °F 39% 30.15 in 10.0 mi SSW 9.2 mph - N/A   Overcast
12:35 PM 59.0 °F - 35.6 °F 42% 30.14 in 10.0 mi South 10.4 mph - N/A   Overcast
12:55 PM 60.8 °F - 33.8 °F 36% 30.13 in 10.0 mi SSW 12.7 mph - N/A   Mostly Cloudy
1:15 PM 60.8 °F - 33.8 °F 36% 30.12 in 10.0 mi SSW 10.4 mph - N/A   Mostly Cloudy
1:35 PM 62.6 °F - 35.6 °F 37% 30.11 in 10.0 mi SSW 9.2 mph - N/A   Mostly Cloudy
1:55 PM 62.6 °F - 35.6 °F 37% 30.09 in 10.0 mi SSE 13.8 mph - N/A   Overcast
2:15 PM 64.4 °F - 35.6 °F 34% 30.08 in 10.0 mi SSE 15.0 mph 18.4 mph N/A   Mostly Cloudy
2:35 PM 64.4 °F - 35.6 °F 34% 30.07 in 10.0 mi SE 13.8 mph 21.9 mph N/A   Scattered Clouds
2:55 PM 64.4 °F - 33.8 °F 32% 30.07 in 10.0 mi South 13.8 mph 18.4 mph N/A   Mostly Cloudy
3:15 PM 64.4 °F - 32.0 °F 30% 30.06 in 10.0 mi SSE 17.3 mph 25.3 mph N/A   Overcast
3:35 PM 66.2 °F - 32.0 °F 28% 30.05 in 10.0 mi South 18.4 mph - N/A   Overcast
3:55 PM 64.4 °F - 32.0 °F 30% 30.04 in 10.0 mi South 16.1 mph 20.7 mph N/A   Mostly Cloudy
4:15 PM 64.4 °F - 32.0 °F 30% 30.03 in 10.0 mi South 15.0 mph - N/A   Scattered Clouds
4:35 PM 64.4 °F - 33.8 °F 32% 30.02 in 10.0 mi SSE 12.7 mph - N/A   Mostly Cloudy
4:55 PM 64.4 °F - 33.8 °F 32% 30.01 in 10.0 mi SSE 12.7 mph - N/A   Scattered Clouds
5:15 PM 64.4 °F - 33.8 °F 32% 30.01 in 10.0 mi South 12.7 mph 17.3 mph N/A   Scattered Clouds
5:35 PM 64.4 °F - 33.8 °F 32% 30.00 in 10.0 mi SSE 12.7 mph 18.4 mph N/A   Mostly Cloudy
5:55 PM 62.6 °F - 33.8 °F 34% 30.00 in 10.0 mi SSE 11.5 mph - N/A   Mostly Cloudy
6:15 PM 62.6 °F - 32.0 °F 32% 29.99 in 10.0 mi SSE 9.2 mph - N/A   Mostly Cloudy
6:35 PM 62.6 °F - 33.8 °F 34% 29.99 in 10.0 mi SSE 11.5 mph - N/A   Mostly Cloudy
6:55 PM 60.8 °F - 33.8 °F 36% 29.99 in 10.0 mi SSE 12.7 mph - N/A   Scattered Clouds
7:15 PM 60.8 °F - 35.6 °F 39% 29.98 in 10.0 mi SSE 12.7 mph - N/A   Clear
7:35 PM 59.0 °F - 33.8 °F 39% 29.98 in 10.0 mi SSE 11.5 mph - N/A   Scattered Clouds
7:55 PM 59.0 °F - 33.8 °F 39% 29.98 in 10.0 mi SSE 12.7 mph - N/A   Clear
8:15 PM 59.0 °F - 35.6 °F 42% 29.99 in 10.0 mi SSE 10.4 mph - N/A   Clear
8:35 PM 59.0 °F - 35.6 °F 42% 29.99 in 10.0 mi SSE 11.5 mph - N/A   Clear
8:55 PM 57.2 °F - 35.6 °F 44% 30.00 in 10.0 mi SSE 10.4 mph - N/A   Clear
9:15 PM 57.2 °F - 37.4 °F 48% 30.00 in 10.0 mi SSE 11.5 mph - N/A   Mostly Cloudy
9:35 PM 57.2 °F - 37.4 °F 48% 30.00 in 10.0 mi SSE 11.5 mph - N/A   Overcast
9:55 PM 57.2 °F - 37.4 °F 48% 30.00 in 10.0 mi SSE 10.4 mph - N/A   Overcast
10:15 PM 55.4 °F - 37.4 °F 51% 29.99 in 10.0 mi SSE 10.4 mph - N/A   Overcast
10:35 PM 55.4 °F - 37.4 °F 51% 29.99 in 10.0 mi South 9.2 mph - N/A   Overcast
10:55 PM 55.4 °F - 37.4 °F 51% 30.00 in 10.0 mi South 15.0 mph 25.3 mph N/A Rain Light Rain
11:15 PM 55.4 °F - 37.4 °F 51% 30.00 in 10.0 mi South 10.4 mph - N/A Rain Light Rain
11:35 PM 53.6 °F - 41.0 °F 62% 30.00 in 10.0 mi SSW 13.8 mph 19.6 mph N/A Rain Light Rain
11:55 PM 53.6 °F - 41.0 °F 62% 30.00 in 10.0 mi SW 10.4 mph - N/A Rain Light Rain